Sanford, NC

4:46 PM EST on January 16, 2018 (GMT -0500)
Raleigh Executive Jetport

Weather History for KTTA - May, 2014

Change the Weather History Date:

Saturday, May 3, 2014

  Actual Average (KHRJ) Record (KHRJ)
Temperature  
Mean Temperature 63 °F -  
Max Temperature 76 °F 77 °F 91 °F (2012)
Min Temperature 50 °F 51 °F 38 °F (1978)
Degree Days  
Heating Degree Days 2    
Growing Degree Days 13 (Base 50)    
Moisture  
Dew Point 48 °F    
Average Humidity 66    
Maximum Humidity 98    
Minimum Humidity 28    
Precipitation  
Precipitation 0.00 in - - ()
Sea Level Pressure  
Sea Level Pressure 29.89 in    
Wind  
Wind Speed 2 mph (West)    
Max Wind Speed 12 mph    
Max Gust Speed 17 mph    
Visibility 10 miles    
Events      
Averages and records for this station are not official NWS values.
T = Trace of Precipitation, MM = Missing Value Source: NWS Daily Summary

Daily Weather History Graph

Daily Weather History Graph

Search for Another Location

Airport or City:

Trip Planner

Search our weather history database for the weather conditions in past years. The results will help you decide how hot, cold, wet, or windy it might be!

Date:

Astronomy

May. 03, 2014 Rise Set
Actual Time 6:22 AM EDT 8:04 PM EDT
Civil Twilight 5:55 AM EDT 8:32 PM EDT
Nautical Twilight 5:22 AM EDT 9:05 PM EDT
Astronomical Twilight 4:47 AM EDT 9:40 PM EDT
Moon 9:52 AM EDT (5/3) No Moon Set
Length of Visible Light 14h 36m
Length of Day
13h 42m
Waxing Crescent, 19% of the Moon is Illuminated
May 3
Waxing Crescent
May 6
First Quarter
May 14
Full
May 21
Last Quarter
May 28
New

Hourly Weather History & Observations

Time (EDT) Temp. Dew Point Humidity Pressure Visibility Wind Dir Wind Speed Gust Speed Precip Events Conditions
12:15 AM 53.8 °F 51.3 °F 91% 29.91 in 10.0 mi Calm Calm - N/A   Unknown
12:35 AM 52.7 °F 51.1 °F 94% 29.90 in 10.0 mi Calm Calm - N/A   Unknown
12:55 AM 52.3 °F 50.7 °F 94% 29.91 in 10.0 mi Calm Calm - N/A   Unknown
1:15 AM 52.0 °F 50.7 °F 95% 29.90 in 10.0 mi Calm Calm - N/A   Unknown
1:35 AM 51.8 °F 50.5 °F 95% 29.90 in 10.0 mi Calm Calm - N/A   Unknown
1:55 AM 52.0 °F 50.9 °F 96% 29.89 in 10.0 mi Calm Calm - N/A   Unknown
2:15 AM 51.3 °F 50.2 °F 96% 29.89 in 10.0 mi Calm Calm - N/A   Unknown
2:35 AM 51.3 °F 50.0 °F 95% 29.89 in 10.0 mi Calm Calm - N/A   Unknown
2:55 AM 51.1 °F 50.0 °F 96% 29.89 in 10.0 mi Calm Calm - N/A   Unknown
3:15 AM 50.9 °F 50.0 °F 97% 29.88 in 10.0 mi Calm Calm - N/A   Unknown
3:35 AM 51.6 °F 50.4 °F 95% 29.88 in 10.0 mi Calm Calm - N/A   Unknown
3:55 AM 51.8 °F 50.7 °F 96% 29.88 in 10.0 mi Calm Calm - N/A   Unknown
4:15 AM 51.8 °F 50.9 °F 97% 29.89 in 10.0 mi Calm Calm - N/A   Unknown
4:35 AM 51.8 °F 50.5 °F 95% 29.89 in 10.0 mi Calm Calm - N/A   Unknown
4:55 AM 52.0 °F 51.1 °F 97% 29.89 in 10.0 mi Calm Calm - N/A   Unknown
5:15 AM 51.3 °F 50.4 °F 97% 29.89 in 10.0 mi Calm Calm - N/A   Unknown
5:35 AM 50.9 °F 50.0 °F 97% 29.88 in 10.0 mi Calm Calm - N/A   Unknown
5:55 AM 50.4 °F 49.6 °F 97% 29.89 in 10.0 mi Calm Calm - N/A   Unknown
6:15 AM 50.2 °F 49.5 °F 97% 29.89 in 7.0 mi Calm Calm - N/A   Unknown
6:35 AM 50.4 °F 49.8 °F 98% 29.89 in 10.0 mi Calm Calm - N/A   Unknown
6:55 AM 51.3 °F 50.5 °F 97% 29.89 in 10.0 mi Calm Calm - N/A   Unknown
7:15 AM 51.6 °F 50.7 °F 97% 29.90 in 10.0 mi Calm Calm - N/A   Unknown
7:35 AM 52.0 °F 51.3 °F 97% 29.91 in 10.0 mi Calm Calm - N/A   Unknown
7:55 AM 52.9 °F 52.2 °F 97% 29.90 in 10.0 mi Calm Calm - N/A   Unknown
8:15 AM 53.6 °F 52.7 °F 97% 29.89 in 10.0 mi Calm Calm - N/A   Unknown
8:35 AM 56.5 °F 53.6 °F 90% 29.90 in 10.0 mi Calm Calm - N/A   Unknown
8:55 AM 59.2 °F 54.7 °F 85% 29.90 in 10.0 mi SW 3.5 mph - N/A   Unknown
9:15 AM 60.8 °F 54.0 °F 78% 29.90 in 10.0 mi SW 5.8 mph - N/A   Unknown
9:35 AM 62.1 °F 54.1 °F 75% 29.91 in 10.0 mi West 6.9 mph - N/A   Unknown
9:55 AM 63.0 °F 53.2 °F 71% 29.91 in 10.0 mi West 4.6 mph - N/A   Unknown
10:15 AM 64.0 °F 53.1 °F 67% 29.91 in 10.0 mi WNW 3.5 mph - N/A   Unknown
10:35 AM 65.5 °F 52.9 °F 64% 29.91 in 10.0 mi WNW 5.8 mph - N/A   Unknown
10:55 AM 67.5 °F 50.7 °F 55% 29.91 in 10.0 mi WNW 4.6 mph - N/A   Unknown
11:15 AM 68.5 °F 50.2 °F 52% 29.91 in 10.0 mi West 5.8 mph - N/A   Unknown
11:35 AM 69.8 °F 47.3 °F 45% 29.91 in 10.0 mi North 4.6 mph - N/A   Unknown
12:15 PM 70.7 °F 44.4 °F 39% 29.90 in 10.0 mi WSW 5.8 mph - N/A   Unknown
12:35 PM 72.1 °F 44.4 °F 37% 29.90 in 10.0 mi NNW 3.5 mph - N/A   Unknown
12:55 PM 72.7 °F 43.0 °F 34% 29.89 in 10.0 mi WNW 4.6 mph - N/A   Unknown
1:15 PM 72.1 °F 42.3 °F 34% 29.89 in 10.0 mi NW 4.6 mph - N/A   Unknown
1:35 PM 73.2 °F 44.2 °F 35% 29.89 in 10.0 mi NW 5.8 mph - N/A   Unknown
1:55 PM 73.8 °F 42.6 °F 33% 29.89 in 10.0 mi SW 3.5 mph - N/A   Unknown
2:15 PM 73.4 °F 42.1 °F 32% 29.89 in 10.0 mi West 11.5 mph 17.3 mph N/A   Unknown
2:35 PM 74.5 °F 42.4 °F 32% 29.88 in 10.0 mi WSW 5.8 mph - N/A   Unknown
2:55 PM 74.3 °F 41.4 °F 31% 29.88 in 10.0 mi Calm Calm - N/A   Unknown
3:15 PM 74.8 °F 41.7 °F 30% 29.87 in 10.0 mi West 10.4 mph - N/A   Unknown
3:35 PM 75.2 °F 42.1 °F 30% 29.86 in 10.0 mi SW 9.2 mph 17.3 mph N/A   Unknown
3:55 PM 75.2 °F 40.3 °F 28% 29.86 in 10.0 mi WSW 5.8 mph 9.2 mph N/A   Unknown
4:15 PM 76.1 °F 40.5 °F 28% 29.86 in 10.0 mi West 9.2 mph 17.3 mph N/A   Unknown
4:35 PM 75.7 °F 41.5 °F 29% 29.86 in 10.0 mi WSW 8.1 mph - N/A   Unknown
4:55 PM 75.9 °F 41.7 °F 29% 29.86 in 10.0 mi SW 6.9 mph 16.1 mph N/A   Unknown
5:15 PM 76.1 °F 41.7 °F 29% 29.86 in 10.0 mi SW 10.4 mph 17.3 mph N/A   Unknown
5:35 PM 76.3 °F 40.6 °F 28% 29.86 in 10.0 mi SW 10.4 mph - N/A   Unknown
5:55 PM 75.7 °F 40.6 °F 28% 29.86 in 10.0 mi WSW 10.4 mph - N/A   Unknown
6:15 PM 76.1 °F 41.7 °F 29% 29.86 in 10.0 mi West 6.9 mph - N/A   Unknown
6:35 PM 75.6 °F 41.5 °F 29% 29.86 in 10.0 mi West 6.9 mph - N/A   Unknown
6:55 PM 75.2 °F 40.5 °F 29% 29.86 in 10.0 mi West 6.9 mph - N/A   Unknown
7:15 PM 74.7 °F 40.5 °F 29% 29.86 in 10.0 mi West 4.6 mph - N/A   Unknown
7:35 PM 73.2 °F 43.5 °F 34% 29.86 in 10.0 mi Calm Calm - N/A   Unknown
7:55 PM 69.3 °F 49.1 °F 49% 29.87 in 10.0 mi SSW 3.5 mph - N/A   Unknown
8:15 PM 66.4 °F 50.0 °F 56% 29.87 in 10.0 mi Calm Calm - N/A   Unknown
8:35 PM 64.0 °F 49.8 °F 60% 29.88 in 10.0 mi Calm Calm - N/A   Unknown
8:55 PM 62.4 °F 50.0 °F 64% 29.88 in 10.0 mi Calm Calm - N/A   Unknown
9:15 PM 61.0 °F 50.7 °F 69% 29.89 in 10.0 mi Calm Calm - N/A   Unknown
9:35 PM 59.7 °F 50.7 °F 72% 29.89 in 10.0 mi Calm Calm - N/A   Unknown
9:55 PM 57.0 °F 51.6 °F 82% 29.90 in 10.0 mi Calm Calm - N/A   Unknown
10:15 PM 57.4 °F 50.7 °F 78% 29.91 in 10.0 mi Calm Calm - N/A   Unknown
10:35 PM 57.2 °F 49.6 °F 76% 29.91 in 10.0 mi Calm Calm - N/A   Unknown
10:55 PM 56.7 °F 50.0 °F 78% 29.92 in 10.0 mi Calm Calm - N/A   Unknown
11:15 PM 54.7 °F 50.7 °F 86% 29.92 in 10.0 mi Calm Calm - N/A   Unknown
11:35 PM 55.8 °F 49.1 °F 78% 29.92 in 10.0 mi SW 3.5 mph - N/A   Unknown
11:55 PM 56.5 °F 48.2 °F 74% 29.93 in 10.0 mi SW 3.5 mph - N/A   Unknown